User: anonymous   Login
Location: Poughquag
(41.6090°N, 73.6820°W)
Time: 18:08:20
(UTC-05:00)
Language:

CUTE 1.7 + AOD 2 - Orbit

View from above orbital plane
View from above orbital plane
View from above satellite
View from above satellite

Ground track
Ground track

The orbit data is extracted from the following two-line orbital elements,

1 32785U 08021C   23332.46007366  .00007683  00000-0  72459-3 0  9995
2 32785  97.7298 295.2679 0009630 280.8334  79.1802 14.94021795845405
Epoch (UTC): 28 November 2023 11:02:30
Eccentricity: 0.0009630
inclination: 97.7298°
perigee height: 579 km
apogee height: 592 km
right ascension of ascending node: 295.2679°
argument of perigee: 280.8334°
revolutions per day: 14.94021795
mean anomaly at epoch: 79.1802°
orbit number at epoch: 84540

The dashed part of the orbit path shows where the satellite is in the earth's shadow,  

DLR